Breckenridge, TX

2:27 AM CST on February 06, 2016 (GMT -0600)
Stephens County

Weather History for KBKD - July, 2013

Change the Weather History Date:

Saturday, July 20, 2013

  Actual Average (KABI) Record (KABI)
Temperature  
Mean Temperature 84 °F 84 °F  
Max Temperature 95 °F 95 °F 107 °F (1936)
Min Temperature 73 °F 72 °F 65 °F (1989)
Degree Days  
Heating Degree Days 0 0  
Month to date heating degree days 0  
Since 1 June heating degree days 1  
Since 1 July heating degree days 0  
Cooling Degree Days 19 18  
Month to date cooling degree days 353  
Year to date cooling degree days 1185  
Since 1 June cooling degree days 788  
Growing Degree Days 34 (Base 50)    
Moisture  
Dew Point 66 °F    
Average Humidity 56    
Maximum Humidity 83    
Minimum Humidity 30    
Precipitation  
Precipitation 0.00 in 0.06 in 3.18 in (1938)
Month to date precipitation 1.24  
Year to date precipitation 13.74  
Sea Level Pressure  
Sea Level Pressure 29.94 in    
Wind  
Wind Speed 9 mph (South)    
Max Wind Speed 14 mph    
Max Gust Speed 22 mph    
Visibility 10 miles    
Events      
T = Trace of Precipitation, MM = Missing Value Source: NWS Daily Summary

Daily Weather History Graph

Daily Weather History Graph

Search for Another Location

Airport or City:

Trip Planner

Search our weather history database for the weather conditions in past years. The results will help you decide how hot, cold, wet, or windy it might be!

Date:

Astronomy

Jul. 20, 2013 Rise Set
Actual Time 6:41 AM CDT 8:41 PM CDT
Civil Twilight 6:14 AM CDT 9:09 PM CDT
Nautical Twilight 5:40 AM CDT 9:42 PM CDT
Astronomical Twilight 5:04 AM CDT 10:18 PM CDT
Moon 6:47 PM CDT (7/20) 4:22 AM CDT (7/20)
Length of Visible Light 14h 55m
Length of Day
14h 00m
Waxing Gibbous, 94% of the Moon is Illuminated
Jul 20
Waxing Gibbous
Jul 22
Full
Jul 29
Last Quarter
Aug 6
New
Aug 14
First Quarter

Hourly Weather History & Observations

Time (CDT) Temp. Heat Index Dew Point Humidity Pressure Visibility Wind Dir Wind Speed Gust Speed Precip Events Conditions
12:15 AM 81.5 °F 83.7 °F 66.2 °F 60% 29.99 in 10.0 mi SSE 10.4 mph - N/A   Clear
12:35 AM 80.8 °F 83.1 °F 66.7 °F 62% 29.99 in 10.0 mi SSE 11.5 mph 16.1 mph N/A   Clear
12:55 AM 80.2 °F 82.6 °F 67.1 °F 64% 30.00 in 10.0 mi SSE 12.7 mph - N/A   Clear
1:15 AM 79.9 °F - 67.6 °F 66% 29.99 in 10.0 mi SSE 12.7 mph 20.7 mph N/A   Clear
1:35 AM 79.3 °F - 68.2 °F 69% 29.99 in 10.0 mi SSE 10.4 mph - N/A   Clear
1:55 AM 78.8 °F - 68.4 °F 70% 30.00 in 10.0 mi South 9.2 mph 16.1 mph N/A   Clear
2:15 AM 78.1 °F - 68.9 °F 73% 30.00 in 10.0 mi South 8.1 mph - N/A   Clear
2:35 AM 77.9 °F - 68.9 °F 74% 29.99 in 10.0 mi South 9.2 mph - N/A   Clear
2:55 AM 77.5 °F - 68.9 °F 75% 29.98 in 10.0 mi South 10.4 mph - N/A   Clear
3:15 AM 77.0 °F - 69.1 °F 76% 29.98 in 10.0 mi South 6.9 mph - N/A   Clear
3:35 AM 76.1 °F - 68.9 °F 78% 29.98 in 10.0 mi SSW 6.9 mph - N/A   Clear
3:55 AM 76.1 °F - 68.5 °F 77% 29.98 in 10.0 mi South 6.9 mph - N/A   Clear
4:15 AM 75.6 °F - 68.2 °F 78% 29.98 in 10.0 mi South 6.9 mph - N/A   Clear
4:35 AM 75.2 °F - 68.4 °F 79% 29.97 in 10.0 mi SSW 5.8 mph - N/A   Clear
4:55 AM 75.4 °F - 68.0 °F 78% 29.97 in 10.0 mi South 5.8 mph - N/A   Clear
5:15 AM 74.3 °F - 68.0 °F 81% 29.97 in 10.0 mi South 4.6 mph - N/A   Clear
5:35 AM 73.9 °F - 68.0 °F 82% 29.97 in 10.0 mi South 5.8 mph - N/A   Clear
5:55 AM 73.8 °F - 68.0 °F 82% 29.97 in 10.0 mi SSW 4.6 mph - N/A   Clear
6:15 AM 74.1 °F - 68.0 °F 81% 29.98 in 10.0 mi South 6.9 mph - N/A   Clear
6:35 AM 73.6 °F - 68.0 °F 83% 29.98 in 10.0 mi SSW 5.8 mph - N/A   Clear
6:55 AM 73.6 °F - 68.2 °F 83% 29.98 in 10.0 mi South 6.9 mph - N/A   Clear
7:15 AM 74.1 °F - 68.4 °F 82% 29.97 in 10.0 mi SSW 6.9 mph - N/A   Clear
7:35 AM 75.2 °F - 68.4 °F 79% 29.98 in 10.0 mi SSW 5.8 mph - N/A   Clear
7:55 AM 76.3 °F - 68.5 °F 77% 29.98 in 10.0 mi SSW 5.8 mph - N/A   Clear
8:15 AM 77.4 °F - 68.4 °F 74% 29.98 in 10.0 mi SSW 8.1 mph - N/A   Clear
8:35 AM 78.8 °F - 68.5 °F 71% 29.98 in 10.0 mi SSW 8.1 mph - N/A   Clear
8:55 AM 80.6 °F 83.5 °F 68.5 °F 67% 29.98 in 10.0 mi SW 9.2 mph - N/A   Clear
9:15 AM 81.9 °F 84.8 °F 68.4 °F 63% 29.98 in 10.0 mi SW 8.1 mph - N/A   Clear
9:35 AM 83.5 °F 86.4 °F 68.0 °F 59% 29.99 in 10.0 mi SW 11.5 mph - N/A   Clear
9:55 AM 84.6 °F 87.9 °F 68.2 °F 58% 29.99 in 10.0 mi WSW 10.4 mph - N/A   Clear
10:15 AM 85.3 °F 88.5 °F 68.0 °F 56% 29.98 in 10.0 mi WSW 10.4 mph 16.1 mph N/A   Clear
10:35 AM 86.9 °F 90.3 °F 67.8 °F 53% 29.98 in 10.0 mi WSW 9.2 mph - N/A   Clear
10:55 AM 87.8 °F 91.1 °F 67.8 °F 51% 29.98 in 10.0 mi WSW 10.4 mph - N/A   Clear
11:15 AM 88.2 °F 91.3 °F 67.1 °F 50% 29.98 in 10.0 mi SSW 8.1 mph - N/A   Clear
11:35 AM 89.6 °F 92.6 °F 66.9 °F 47% 29.98 in 10.0 mi WSW 5.8 mph - N/A   Clear
11:55 AM 90.5 °F 93.3 °F 66.4 °F 45% 29.98 in 10.0 mi West 8.1 mph - N/A   Clear
12:15 PM 90.5 °F 92.2 °F 64.2 °F 42% 29.97 in 10.0 mi SSW 8.1 mph - N/A   Clear
12:35 PM 91.2 °F 92.5 °F 63.5 °F 40% 29.96 in 10.0 mi SSW 3.5 mph - N/A   Clear
12:55 PM 91.9 °F 92.9 °F 63.0 °F 38% 29.96 in 10.0 mi SSW 6.9 mph - N/A   Scattered Clouds
1:15 PM 92.3 °F 92.7 °F 62.1 °F 36% 29.95 in 10.0 mi SSE 3.5 mph - N/A   Scattered Clouds
1:35 PM 92.1 °F 92.8 °F 62.6 °F 37% 29.94 in 10.0 mi West 5.8 mph - N/A   Mostly Cloudy
1:55 PM 92.3 °F 92.7 °F 61.7 °F 36% 29.94 in 10.0 mi West 4.6 mph - N/A   Mostly Cloudy
2:15 PM 92.8 °F 92.8 °F 60.4 °F 34% 29.93 in 10.0 mi SSW 4.6 mph - N/A   Scattered Clouds
2:35 PM 92.1 °F 92.1 °F 60.6 °F 35% 29.93 in 10.0 mi South 3.5 mph - N/A   Mostly Cloudy
2:55 PM 93.6 °F 94.2 °F 61.9 °F 35% 29.93 in 10.0 mi SSW 9.2 mph - N/A   Mostly Cloudy
3:15 PM 94.6 °F 94.3 °F 59.7 °F 31% 29.92 in 10.0 mi SSW 6.9 mph - N/A   Scattered Clouds
3:35 PM 94.6 °F 94.7 °F 60.6 °F 32% 29.91 in 10.0 mi SSE 5.8 mph - N/A   Scattered Clouds
3:55 PM 94.8 °F 94.5 °F 59.9 °F 31% 29.90 in 10.0 mi SW 4.6 mph - N/A   Clear
4:15 PM 95.0 °F 94.4 °F 59.0 °F 30% 29.89 in 10.0 mi SSE 5.8 mph 10.4 mph N/A   Clear
4:35 PM 95.9 °F 95.7 °F 60.3 °F 30% 29.88 in 10.0 mi SW 3.5 mph - N/A   Clear
4:55 PM 95.9 °F 95.7 °F 59.5 °F 30% 29.88 in 10.0 mi SSE 5.8 mph - N/A   Clear
5:15 PM 94.5 °F 94.0 °F 59.5 °F 31% 29.88 in 10.0 mi South 10.4 mph - N/A   Mostly Cloudy
5:35 PM 93.6 °F 95.5 °F 64.6 °F 38% 29.88 in 10.0 mi ESE 13.8 mph 21.9 mph N/A   Mostly Cloudy
5:55 PM 92.3 °F 93.8 °F 63.9 °F 39% 29.86 in 10.0 mi ESE 12.7 mph 17.3 mph N/A   Clear
6:15 PM 93.0 °F 94.2 °F 63.0 °F 37% 29.85 in 10.0 mi ESE 9.2 mph - N/A   Clear
6:35 PM 93.2 °F 94.5 °F 63.1 °F 37% 29.85 in 10.0 mi SE 8.1 mph - N/A   Scattered Clouds
6:55 PM 93.2 °F 94.5 °F 63.1 °F 37% 29.85 in 10.0 mi ESE 11.5 mph - N/A   Mostly Cloudy
7:15 PM 92.8 °F 93.5 °F 62.4 °F 36% 29.85 in 10.0 mi SE 11.5 mph - N/A   Mostly Cloudy
7:35 PM 90.5 °F 91.8 °F 64.0 °F 41% 29.85 in 10.0 mi SE 9.2 mph - N/A   Scattered Clouds
7:55 PM 89.6 °F 91.1 °F 64.6 °F 43% 29.87 in 10.0 mi SE 11.5 mph - N/A   Scattered Clouds
8:15 PM 88.2 °F 89.9 °F 64.9 °F 46% 29.87 in 10.0 mi SE 6.9 mph - N/A   Scattered Clouds
8:35 PM 87.1 °F 89.2 °F 65.7 °F 49% 29.87 in 10.0 mi SE 5.8 mph - N/A   Overcast
8:55 PM 86.4 °F 88.7 °F 66.2 °F 51% 29.88 in 10.0 mi SE 9.2 mph - N/A   Overcast
9:15 PM 85.6 °F 87.4 °F 65.3 °F 50% 29.88 in 10.0 mi SE 10.4 mph - N/A   Mostly Cloudy
9:35 PM 84.7 °F 86.6 °F 65.5 °F 52% 29.89 in 10.0 mi SE 10.4 mph - N/A   Scattered Clouds
9:55 PM 84.0 °F 86.3 °F 66.4 °F 55% 29.89 in 10.0 mi SE 10.4 mph 16.1 mph N/A   Scattered Clouds
10:15 PM 83.3 °F 85.9 °F 67.1 °F 58% 29.90 in 10.0 mi SE 11.5 mph - N/A   Scattered Clouds
10:35 PM 82.8 °F 85.3 °F 67.3 °F 59% 29.90 in 10.0 mi SE 9.2 mph - N/A   Clear
10:55 PM 82.4 °F 85.0 °F 67.5 °F 60% 29.91 in 10.0 mi SE 9.2 mph - N/A   Clear
11:15 PM 82.0 °F 84.9 °F 67.6 °F 62% 29.91 in 10.0 mi SE 8.1 mph - N/A   Clear
11:35 PM 81.7 °F 84.5 °F 68.0 °F 63% 29.92 in 10.0 mi SE 9.2 mph - N/A   Clear
11:55 PM 81.1 °F 83.9 °F 68.0 °F 64% 29.92 in 10.0 mi SE 10.4 mph - N/A   Clear